Home   Weather   Gorzów Wielkopolski   Past weeks

Flag for Poland Past Weather in Gorzów Wielkopolski, Poland — Yesterday and Last 2 Weeks

Now
56 °F

Fog.


Feels Like: 56 °F
Forecast: 61 / 69 °F
Wind: 1 mph from South

Location: Gorzow Wlkp

Current Time: Jul 24, 2017 at 6:54:18 am

Latest Report: Jul 24, 2017 at 5:00 am


Visibility: 25 mi

Pressure: 29.88 "Hg

Humidity: 96%

Dew Point: 55 °F

Location of Gorzów WielkopolskiLocation

Past Weather in Gorzów Wielkopolski — Graph

°F

Gorzów Wielkopolski Temperature Yesterday

Maximum temperature yesterday: 74 °F (at 5:00 pm)
Minimum temperature yesterday: 63 °F (at 11:00 pm)
Average temperature yesterday: 68 °F

High & Low Weather Summary for the Past Weeks

 TemperatureHumidityPressure
High82 °F (Jul 20, 5:00 pm)98% (Jul 12, 7:00 am)30.21 "Hg (Jul 12, 7:00 am)
Low51 °F (Jul 16, 6:00 am)31% (Jul 15, 2:00 pm)29.67 "Hg (Jul 12, 10:00 pm)
Average65 °F75%29.95 "Hg
* Reported Jul 9 5:00 am — Jul 24 5:00 am, Gorzów Wielkopolski. Weather by CustomWeather, © 2017

Note: Actual official high and low records may vary slightly from our data, if they occured in-between our weather recording intervals... More about our weather records

Advertising

Gorzów Wielkopolski Weather History for the Previous 24 Hours

Scroll right to see more
 ConditionsComfort  
Time TempWeatherWind HumidityBarometerVisibility
5:00 am
Mon, Jul 24
56 °FFog.1 mph96%29.88 "Hg25 mi
4:00 am58 °FFog.N/A93%29.89 "Hg25 mi
3:00 am59 °FPassing clouds.1 mph92%29.90 "Hg31 mi
2:00 am58 °FPassing clouds.1 mph91%29.91 "Hg31 mi
1:00 am60 °FPassing clouds.1 mph88%29.92 "Hg31 mi
12:00 am61 °FPassing clouds.No wind84%29.92 "Hg31 mi
11:00 pm
Sun, Jul 23
63 °FPassing clouds.N/A79%29.92 "Hg31 mi
10:00 pm65 °FPassing clouds.1 mph71%29.91 "Hg31 mi
9:00 pm67 °FPartly sunny.3 mph64%29.90 "Hg31 mi
8:00 pm71 °FPartly sunny.5 mph57%29.90 "Hg31 mi
7:00 pm74 °FPartly sunny.2 mph63%29.88 "Hg25 mi
6:00 pm74 °FPartly sunny.3 mph59%29.89 "Hg22 mi
5:00 pm74 °FPartly sunny.3 mph66%29.89 "Hg22 mi
4:00 pm73 °FPartly sunny.3 mph74%29.90 "Hg16 mi
3:00 pm70 °FOvercast.2 mph86%29.91 "Hg12 mi
2:00 pm69 °FOvercast.2 mph83%29.91 "Hg12 mi
1:00 pm66 °FThunderstorms. Overcast.1 mph90%29.91 "Hg6 mi
12:00 pm71 °FOvercast.1 mph79%29.91 "Hg12 mi
11:00 am70 °FOvercast.2 mph81%29.90 "Hg9 mi
10:00 am69 °FFog.1 mph85%29.90 "Hg5 mi
9:00 am66 °FFog.2 mph94%29.91 "Hg4 mi
8:00 am66 °FFog.2 mph94%29.90 "Hg5 mi
7:00 am65 °FFog.2 mph95%29.91 "Hg5 mi
6:00 am64 °FFog.2 mph96%29.92 "Hg5 mi
Weather by CustomWeather, © 2017

See weather overviewHow to use our weather pages